Location: �perlecques
(50.8057°N, 2.1521°E)
Time: 08:17:40
(UTC+00:00)

RS-15 - Visible Passes

Search period start: 01 April 2023 00:00
Search period end: 11 April 2023 00:00
Orbit: 1884 x 2161 km, 64.8° (Epoch: 30 March)

Date Brightness Start Highest point End Pass type
(mag) Time Alt. Az. Time Alt. Az. Time Alt. Az.
01 Apr 8.3 01:03:06 10° NW 01:13:55 44° WSW 01:13:55 44° WSW visible
01 Apr 9.0 19:59:14 10° WNW 20:10:45 42° N 20:21:51 10° ENE visible
01 Apr 8.2 22:13:45 10° NW 22:25:53 65° NE 22:31:10 38° ESE visible
02 Apr 8.1 00:26:50 10° NW 00:38:16 55° WSW 00:38:54 54° SW visible
02 Apr 9.4 02:42:43 10° WNW 02:46:38 13° W 02:46:38 13° W visible
02 Apr 9.1 19:22:29 10° WNW 19:34:00 42° N 19:45:07 10° ENE visible
02 Apr 8.4 21:37:28 10° NW 21:49:28 57° NNE 21:56:12 28° E visible
02 Apr 7.9 23:50:38 10° NW 00:02:27 67° WSW 00:03:56 62° SSW visible
03 Apr 9.2 02:05:03 10° NW 02:11:39 19° W 02:11:39 19° W visible
03 Apr 9.1 18:45:40 10° WNW 18:57:15 43° N 19:08:29 10° ENE visible
03 Apr 8.6 21:01:06 10° NW 21:12:57 51° NNE 21:21:14 21° E visible
03 Apr 7.9 23:14:28 10° NW 23:26:31 80° SW 23:28:59 62° SSE visible
04 Apr 8.9 01:28:09 10° NW 01:36:43 26° W 01:36:43 26° W visible
04 Apr 8.8 20:24:38 10° NW 20:36:21 47° NNE 20:46:19 14° E visible
04 Apr 7.9 22:38:18 10° NW 22:50:28 87° NE 22:54:02 54° SE visible
05 Apr 8.6 00:51:36 10° NW 01:01:34 34° WSW 01:01:47 34° WSW visible
05 Apr 8.9 19:48:05 10° WNW 19:59:40 44° NNE 20:10:46 10° E visible
05 Apr 8.1 22:02:07 10° NW 22:14:18 76° NE 22:19:09 42° ESE visible
06 Apr 8.4 00:15:13 10° NW 00:26:00 43° WSW 00:26:54 42° WSW visible
06 Apr 9.0 19:11:26 10° WNW 19:22:57 42° N 19:34:01 10° ENE visible
06 Apr 8.2 21:25:53 10° NW 21:38:01 66° NE 21:44:17 32° ESE visible
06 Apr 8.1 23:38:57 10° NW 23:50:19 53° WSW 23:52:01 50° SW visible
07 Apr 9.5 01:55:13 10° WNW 01:59:32 13° W 01:59:45 13° W visible
07 Apr 8.4 20:49:36 10° NW 21:01:37 58° NNE 21:09:25 24° ESE visible
07 Apr 8.0 23:02:46 10° NW 23:14:31 65° WSW 23:17:10 54° SSW visible
08 Apr 9.2 01:17:20 10° WNW 01:24:20 18° W 01:24:54 18° W visible
08 Apr 8.6 20:13:15 10° NW 20:25:07 52° NNE 20:34:35 16° E visible
08 Apr 8.0 22:26:35 10° NW 22:38:36 78° SW 22:42:19 51° SSE visible
09 Apr 9.0 00:40:22 10° NW 00:49:01 25° W 00:50:05 25° WSW visible
09 Apr 8.7 19:36:48 10° NW 19:48:32 48° NNE 19:59:42 10° E visible
09 Apr 8.0 21:50:25 10° NW 22:02:34 89° NE 22:07:32 43° SE visible
10 Apr 8.7 00:03:46 10° NW 00:13:35 32° WSW 00:15:16 31° WSW visible
10 Apr 8.9 19:00:16 10° WNW 19:11:52 44° NNE 19:22:58 10° E visible
10 Apr 8.1 21:14:14 10° NW 21:26:25 77° NE 21:32:44 33° SE visible
10 Apr 8.5 23:27:22 10° NW 23:38:02 41° WSW 23:40:29 37° SW visible
